DM5RC Weather Reports


time (UTC)temp
C
wind
direction
speed
KPH
gust
KPH
rain 1hr
cm
rain 24hr
cm
rain mn
cm
humidity
%
barometer
mb
20200217015201 13 296 9.7 12.9 0.00 0.03 0.00 67 1008.1
20200217014201 13 321 11.3 29.0 0.00 0.03 0.00 66 1007.8
20200217013202 13 317 16.1 29.0 0.00 0.03 0.00 65 1007.8
20200217012201 15 329 16.1 27.4 0.00 0.03 0.00 61 1007.5
20200217011202 17 281 16.1 40.2 0.00 0.03 0.00 44 1007.0
20200217010202 16 249 11.3 19.3 0.00 0.03 0.00 44 1006.4
20200217005201 16 260 11.3 14.5 0.00 0.03 0.00 43 1006.0
20200217004202 16 214 11.3 19.3 0.00 0.03 0.00 42 1005.6
20200217003203 16 223 9.7 16.1 0.00 0.03 0.00 41 1005.5
20200217001202 16 213 9.7 19.3 0.00 0.03 0.00 40 1005.2
20200217000203 16 221 9.7 14.5 0.00 0.03 0.00 40 1005.2
20200216235203 16 236 9.7 11.3 0.00 0.03 0.00 39 1005.1
20200216234204 16 213 12.9 24.1 0.00 0.03 0.00 38 1004.9
20200216233203 16 215 12.9 19.3 0.00 0.03 0.00 38 1004.8
20200216232203 16 205 11.3 16.1 0.00 0.03 0.00 37 1004.7
20200216231203 16 204 9.7 19.3 0.00 0.03 0.00 37 1004.4
20200216230201 17 228 11.3 16.1 0.00 0.03 0.00 36 1004.3
20200216225202 17 213 14.5 25.7 0.00 0.03 0.03 36 1004.4
20200216224202 17 220 16.1 24.1 0.00 0.03 0.03 35 1004.1
20200216223203 17 226 19.3 32.2 0.00 0.03 0.03 35 1004.0
20200216222201 17 233 16.1 22.5 0.00 0.03 0.03 35 1004.1
20200216221203 16 237 12.9 19.3 0.00 0.03 0.03 37 1004.1
20200216220203 16 213 12.9 20.9 0.00 0.03 0.03 38 1004.1
20200216215202 16 208 12.9 14.5 0.00 0.03 0.03 38 1004.1
20200216214203 16 210 11.3 19.3 0.00 0.03 0.03 39 1003.9
20200216213202 15 229 16.1 19.3 0.00 0.03 0.03 40 1003.8
20200216212203 15 213 11.3 24.1 0.00 0.03 0.03 42 1003.7
20200216211201 15 218 11.3 20.9 0.00 0.03 0.03 43 1003.6
20200216210201 15 206 11.3 14.5 0.00 0.03 0.03 44 1003.9
20200216205204 15 206 11.3 16.1 0.00 0.03 0.03 44 1004.0
20200216204204 15 229 14.5 22.5 0.00 0.03 0.03 45 1004.2
20200216203201 14 205 9.7 22.5 0.00 0.03 0.03 46 1004.2
20200216202204 14 209 12.9 14.5 0.00 0.03 0.03 47 1004.2
20200216201202 14 219 12.9 32.2 0.00 0.03 0.03 47 1004.4
20200216200202 13 195 11.3 22.5 0.00 0.03 0.03 48 1004.6
20200216195202 13 204 9.7 22.5 0.00 0.03 0.03 48 1004.7
20200216194202 13 218 12.9 19.3 0.00 0.03 0.03 48 1004.8
20200216193204 13 213 14.5 24.1 0.00 0.03 0.03 49 1004.9
20200216192205 13 196 14.5 20.9 0.00 0.03 0.03 49 1004.9
20200216191203 13 225 19.3 27.4 0.00 0.03 0.03 49 1004.9
20200216190201 13 206 12.9 24.1 0.00 0.03 0.03 49 1005.0
20200216185202 13 205 12.9 22.5 0.00 0.03 0.03 49 1005.2
20200216184202 13 220 14.5 19.3 0.00 0.03 0.03 50 1005.5
20200216183201 13 199 14.5 25.7 0.00 0.03 0.03 50 1005.5
20200216182202 13 207 11.3 20.9 0.00 0.03 0.03 51 1005.7
20200216181201 13 207 12.9 27.4 0.00 0.03 0.03 51 1005.9
20200216180205 13 205 12.9 14.5 0.00 0.03 0.03 51 1005.9
20200216175202 13 207 11.3 20.9 0.00 0.03 0.03 52 1006.1
20200216174203 13 192 14.5 25.7 0.00 0.03 0.03 52 1006.2
20200216173205 13 223 19.3 22.5 0.00 0.03 0.03 52 1006.1
20200216171203 13 203 19.3 32.2 0.00 0.03 0.03 53 1006.3
20200216170204 13 199 16.1 27.4 0.00 0.03 0.03 54 1006.3
20200216165202 13 211 14.5 41.8 0.00 0.03 0.03 54 1006.4
20200216164203 12 223 20.9 35.4 0.00 0.03 0.03 55 1006.4
20200216163202 12 219 14.5 25.7 0.00 0.03 0.03 56 1006.5
20200216162201 12 197 14.5 29.0 0.00 0.03 0.03 57 1006.5
20200216161202 12 212 14.5 25.7 0.00 0.03 0.03 57 1006.6
20200216160203 12 213 11.3 16.1 0.00 0.03 0.03 58 1006.8
20200216155202 12 221 12.9 16.1 0.00 0.03 0.03 58 1006.9
20200216154202 12 205 14.5 19.3 0.00 0.03 0.03 58 1007.0
20200216153202 12 220 12.9 22.5 0.00 0.03 0.03 58 1007.2
20200216152201 12 215 11.3 19.3 0.00 0.03 0.03 58 1007.2
20200216151203 12 200 11.3 19.3 0.00 0.03 0.03 57 1007.4
20200216150206 12 216 11.3 24.1 0.00 0.03 0.03 57 1007.5
20200216145202 12 196 16.1 24.1 0.00 0.03 0.03 58 1007.6
20200216144207 12 201 16.1 25.7 0.00 0.03 0.03 59 1007.7
20200216143201 12 190 12.9 22.5 0.00 0.03 0.03 61 1007.8
20200216142206 12 202 12.9 22.5 0.00 0.03 0.03 62 1008.2
20200216141243 12 234 14.5 19.3 0.00 0.03 0.03 61 1008.4
20200216141202 12 234 14.5 19.3 0.00 0.03 0.03 61 1008.4
20200216140203 12 206 8.0 20.9 0.00 0.03 0.03 62 1008.6
20200216135201 12 198 11.3 19.3 0.00 0.03 0.03 62 1008.6
20200216134207 11 202 11.3 14.5 0.00 0.03 0.03 63 1008.6
20200216133201 11 209 11.3 19.3 0.00 0.03 0.03 64 1008.9
20200216132206 11 211 14.5 20.9 0.03 0.03 0.03 65 1009.1
20200216131201 11 194 8.0 16.1 0.03 0.03 0.03 68 1009.3
20200216130203 10 208 12.9 16.1 0.03 0.03 0.03 67 1009.2
20200216125203 10 194 16.1 25.7 0.03 0.03 0.03 69 1009.4
20200216123203 11 230 11.3 16.1 0.03 0.03 0.03 68 1009.9
20200216122201 11 194 9.7 11.3 0.00 0.00 0.00 65 1009.9
20200216121205 11 220 14.5 24.1 0.00 0.00 0.00 63 1010.0
20200216120202 11 218 11.3 16.1 0.00 0.00 0.00 63 1010.2
20200216115202 11 208 12.9 20.9 0.00 0.00 0.00 65 1010.1
20200216114203 11 175 9.7 22.5 0.00 0.00 0.00 65 1010.3
20200216113202 11 216 11.3 27.4 0.00 0.00 0.00 65 1010.4
20200216112203 11 215 12.9 20.9 0.00 0.00 0.00 65 1010.8
20200216111202 11 203 11.3 19.3 0.00 0.00 0.00 65 1011.0
20200216110204 11 227 12.9 19.3 0.00 0.00 0.00 61 1011.1
20200216105203 11 191 11.3 20.9 0.00 0.00 0.00 60 1011.0
20200216104205 11 208 11.3 20.9 0.00 0.00 0.00 60 1011.4
20200216103201 11 219 12.9 19.3 0.00 0.00 0.00 58 1011.5
20200216102203 11 194 9.7 19.3 0.00 0.00 0.00 59 1011.6
20200216101203 11 234 11.3 19.3 0.00 0.00 0.00 59 1011.8
20200216100203 11 205 9.7 19.3 0.00 0.00 0.00 58 1011.9
20200216095203 12 235 12.9 16.1 0.00 0.00 0.00 57 1011.9
20200216094247 11 228 11.3 19.3 0.00 0.00 0.00 58 1011.7
20200216094203 11 228 11.3 19.3 0.00 0.00 0.00 58 1011.7
20200216093206 11 209 16.1 20.9 0.00 0.00 0.00 58 1011.8
20200216092203 11 198 12.9 16.1 0.00 0.00 0.00 59 1011.8
20200216091201 10 199 11.3 22.5 0.00 0.00 0.00 61 1012.0
20200216085202 10 215 14.5 27.4 0.00 0.00 0.00 61 1012.1
20200216084202 10 205 12.9 20.9 0.00 0.00 0.00 62 1012.0
20200216083201 10 193 12.9 19.3 0.00 0.00 0.00 62 1012.1
20200216082201 10 203 9.7 25.7 0.00 0.00 0.00 64 1012.2
20200216081239 9 218 12.9 19.3 0.00 0.00 0.00 64 1012.4
20200216081202 9 218 12.9 19.3 0.00 0.00 0.00 64 1012.4
20200216080203 9 210 12.9 33.8 0.00 0.00 0.00 65 1012.6
20200216075201 9 214 14.5 29.0 0.00 0.00 0.00 65 1012.6
20200216074203 8 227 9.7 14.5 0.00 0.00 0.00 66 1012.5
20200216073202 8 174 12.9 25.7 0.00 0.00 0.00 66 1012.9
20200216072203 8 214 9.7 25.7 0.00 0.00 0.00 66 1012.9
20200216071202 8 194 8.0 14.5 0.00 0.00 0.00 67 1012.8
20200216070204 8 184 9.7 19.3 0.00 0.00 0.00 67 1012.8
20200216065304 8 219 9.7 19.3 0.00 0.00 0.00 68 1013.0
20200216065201 8 219 9.7 19.3 0.00 0.00 0.00 68 1013.0
20200216064203 8 226 9.7 12.9 0.00 0.00 0.00 68 1012.9
20200216063202 8 231 11.3 12.9 0.00 0.00 0.00 68 1013.1
20200216062303 8 210 12.9 19.3 0.00 0.00 0.00 68 1013.1
20200216062201 8 210 12.9 19.3 0.00 0.00 0.00 68 1013.1
20200216061202 8 206 9.7 14.5 0.00 0.00 0.00 68 1013.3
20200216060203 8 198 11.3 19.3 0.00 0.00 0.00 67 1013.3
20200216055202 8 224 9.7 14.5 0.00 0.00 0.00 67 1013.5
20200216054212 8 196 11.3 16.1 0.00 0.00 0.00 67 1013.4
20200216053203 8 210 12.9 25.7 0.00 0.00 0.00 67 1013.2
20200216052202 8 218 9.7 19.3 0.00 0.00 0.00 67 1013.3
20200216051202 8 213 9.7 12.9 0.00 0.00 0.00 67 1013.4
20200216050207 8 217 11.3 19.3 0.00 0.03 0.00 67 1013.4
20200216045202 8 230 3.2 12.9 0.00 0.03 0.00 67 1013.3
20200216044203 8 198 8.0 14.5 0.00 0.03 0.00 67 1013.2
20200216043203 8 209 4.8 19.3 0.00 0.03 0.00 67 1013.3
20200216042204 8 216 9.7 14.5 0.00 0.03 0.00 68 1013.3
20200216041203 8 198 8.0 16.1 0.00 0.03 0.00 68 1013.3
20200216040202 8 212 4.8 9.7 0.00 0.03 0.00 68 1013.2
20200216035202 8 203 8.0 14.5 0.00 0.03 0.00 68 1013.4
20200216034205 8 195 9.7 14.5 0.00 0.03 0.00 67 1013.4
20200216033203 8 205 8.0 9.7 0.00 0.03 0.00 67 1013.5
20200216032204 8 219 9.7 19.3 0.00 0.03 0.00 68 1013.6
20200216031202 8 208 8.0 19.3 0.00 0.03 0.00 68 1013.8
20200216030205 8 199 8.0 8.0 0.00 0.03 0.00 67 1013.7
20200216025202 8 221 4.8 16.1 0.00 0.03 0.00 67 1014.1
20200216023204 8 213 11.3 16.1 0.00 0.03 0.00 67 1014.5
20200216022202 8 208 11.3 19.3 0.00 0.03 0.00 67 1014.5
20200216021202 8 222 8.0 16.1 0.00 0.03 0.00 68 1014.6
20200216020203 8 196 11.3 12.9 0.00 0.03 0.00 68 1014.6